[[{"header":{"parameterUnit":"m.s-1","parameterCategory":1,"la1":30.2991,"la2":30.254,"lo1":-89.0895,"lo2":-89.0444,"dy":0.0017,"dx":0.0017,"nx":28,"ny":28,"refTime":"2025-05-22T03:00:00:Z","depth":0,"parameterNumber":2,"parameterNumberName":"U-component_of_WINDS"},"data":[0,0,0,0,0,0,0,0,0,0,0,0,0,0,0,0,0,0,0,0,0,0,0,0,0,0,0,0,0,0,0,0,0,0,0,0,0,0,0,0,0,0,0,0,0,0,0,0,0,0,0,0,0,0,0,0,0,0,1.5905,1.5907,0,1.6007,1.6008,1.601,1.6032,1.6031,1.6031,1.603,1.6133,1.6136,1.614,0,0,0,0,0,0,0,0,0,0,0,0,0,1.5728,1.5731,1.5905,1.5907,1.5908,1.6007,1.6008,1.601,1.6032,1.6031,1.6031,1.603,1.6132,1.6136,1.614,0,0,0,0,0,0,0,0,0,0,0,0,0,1.5815,1.5732,1.5905,1.5931,1.5934,1.6007,1.6009,1.601,1.6032,1.6031,1.603,1.6029,1.6131,1.6136,1.6141,1.6194,0,0,1.6156,1.6159,0,0,0,0,0,0,0,0,1.581,1.5821,1.5926,1.5929,1.5933,1.6006,1.5984,1.6072,1.6033,1.5995,1.603,1.6029,1.6092,1.61,1.6121,1.6199,1.6203,1.6157,1.616,1.6162,1.6164,0,0,0,0,0,0,0,1.5804,1.5817,1.5946,1.5927,1.5932,1.5937,1.5948,1.6001,1.6048,1.5998,1.6,1.6012,1.6093,1.6116,1.6124,1.6205,1.6157,1.6161,1.6164,1.6166,1.6329,1.633,0,0,0,0,0,0,1.5794,1.5812,1.5942,1.5949,1.5868,1.5941,1.5953,1.5984,1.6048,1.6056,1.6013,1.6013,1.6108,1.6118,1.6128,1.6193,1.6162,1.6167,1.617,1.6328,1.6329,1.6331,0,0,0,0,0,0,1.579,1.5805,1.5938,1.5881,1.5898,1.5945,1.5979,1.5986,1.6009,1.6059,1.6067,1.6028,1.6108,1.612,1.6177,1.6197,1.6169,1.6174,1.6326,1.6328,1.633,1.6324,0,0,0,0,0,0,1.5784,1.5803,1.5825,1.5881,1.5901,1.5987,1.598,1.5989,1.6018,1.6019,1.6075,1.6083,1.6108,1.6169,1.6182,1.6203,1.6178,1.6325,1.6327,1.6329,1.6323,1.6326,1.6328,0,0,0,0,0,1.5778,1.5819,1.5826,1.5842,1.5929,1.5988,1.5999,1.6027,1.602,1.6041,1.6072,1.6081,1.6193,1.6175,1.619,1.6212,1.6324,1.6327,1.6329,1.6322,1.6325,1.6328,0,0,0,0,0,0,1.5764,1.5827,1.5835,1.5896,1.5936,1.5991,1.6019,1.603,1.6073,1.6072,1.6104,1.6117,1.6171,1.6198,1.6177,1.6266,1.6258,1.6264,1.6247,1.6251,1.6253,1.6245,1.6182,0,0,0,0,0,1.5768,1.5811,1.5864,1.5913,1.5932,1.5972,1.5999,1.6017,1.606,1.6077,1.6113,1.6153,1.6197,1.6226,1.6269,1.6327,1.6339,1.635,1.6352,1.6354,1.6359,1.6389,1.6395,1.634,1.634,1.634,0,0,1.5777,1.5817,1.5842,1.5911,1.5944,1.5987,1.5986,1.6032,1.6064,1.6084,1.6139,1.6166,1.6214,1.6271,1.6298,1.6295,1.6376,1.6358,1.6359,1.6363,1.6393,1.6398,1.6402,1.6342,1.6341,1.6341,0,0,1.5815,1.585,1.5893,1.5926,1.5977,1.6003,1.6013,1.6066,1.6085,1.6141,1.6156,1.6194,1.627,1.6303,1.6329,1.6377,1.6386,1.639,1.6404,1.6433,1.6437,1.6441,1.6457,1.6462,1.6395,1.6395,1.6395,0,1.5819,1.5885,1.5914,1.5959,1.5987,1.6007,1.6051,1.6081,1.6143,1.6162,1.6158,1.6252,1.6286,1.635,1.6361,1.6383,1.6394,1.6384,1.6434,1.6439,1.6443,1.6458,1.6464,1.6395,1.6395,1.6395,1.6395,0,1.5887,1.5932,1.5961,1.6019,1.6052,1.6095,1.613,1.6159,1.6174,1.62,1.6256,1.6297,1.6348,1.6365,1.638,1.643,1.6426,1.6428,1.642,1.6448,1.6462,1.6468,1.6395,1.6395,1.6395,1.6395,0,0,1.5919,1.5992,1.6002,1.6028,1.6084,1.6119,1.6163,1.6213,1.6236,1.6278,1.6315,1.6378,1.6379,1.6409,1.6428,1.6454,1.6487,1.6452,1.6454,1.6456,1.6543,1.654,1.6547,1.6494,1.6495,1.6496,1.6538,0,1.5962,1.6041,1.6068,1.6133,1.6174,1.6193,1.6231,1.6269,1.6294,1.6332,1.636,1.6403,1.6402,1.642,1.6447,1.6477,1.6505,1.6475,1.6527,1.6528,1.6513,1.6555,1.6553,1.6591,1.6544,1.6546,1.6546,0,1.6023,1.6065,1.6134,1.6183,1.6201,1.6235,1.6282,1.6318,1.6361,1.6377,1.641,1.6427,1.6472,1.6462,1.6524,1.6503,1.6526,1.6544,1.6546,1.6551,1.6538,1.6559,1.6604,1.6609,1.6556,1.6555,1.6554,0,1.6037,1.6111,1.6161,1.6183,1.6242,1.6265,1.6291,1.6333,1.636,1.6401,1.6419,1.6465,1.649,1.6524,1.6552,1.6543,1.6611,1.6604,1.6625,1.6624,1.6638,1.6636,1.6685,1.6655,1.6655,1.6655,1.6655,0,1.6082,1.6123,1.6168,1.6199,1.6245,1.6275,1.632,1.6346,1.6383,1.6419,1.6438,1.6471,1.6507,1.6544,1.6566,1.6613,1.6625,1.6638,1.6643,1.6636,1.6634,1.665,1.6648,1.6656,1.6656,1.6656,1.6655,0,1.6105,1.6137,1.6193,1.6244,1.6258,1.6289,1.6333,1.6363,1.6388,1.6433,1.6445,1.6485,1.653,1.6562,1.662,1.6634,1.6684,1.669,1.667,1.6672,1.6691,1.6688,1.6751,1.676,1.6725,1.6725,1.6725,0,1.6131,1.6162,1.6217,1.6242,1.6267,1.6308,1.6336,1.6366,1.6395,1.6445,1.6468,1.6514,1.6553,1.6623,1.6657,1.6701,1.6707,1.6726,1.6713,1.6704,1.6705,1.6702,1.6705,1.6727,1.6727,1.6727,1.6728,0,1.6172,1.6186,1.6226,1.6271,1.6303,1.634,1.6378,1.6397,1.6434,1.6464,1.651,1.654,1.6598,1.6643,1.6689,1.6715,1.6727,1.6731,1.6738,1.673,1.6716,1.6722,1.6673,1.6729,1.6729,1.6729,1.6729,1.6729,1.6197,1.6225,1.6267,1.631,1.6341,1.6375,1.6405,1.6434,1.6473,1.6522,1.6538,1.6585,1.6625,1.6689,1.6716,1.6752,1.6751,1.6762,1.6764,1.6766,1.6765,1.6711,1.6761,1.6761,1.6761,1.6761,1.6761,0,1.6238,1.6265,1.6305,1.6355,1.6389,1.6397,1.6438,1.6466,1.6507,1.6544,1.658,1.6632,1.6675,1.6712,1.6757,1.6779,1.6785,1.6789,1.6787,1.6793,1.6764,1.6753,1.6783,1.6783,1.6783,1.6783,1.6783,1.6783,1.6263,1.6311,1.6329,1.6392,1.642,1.6466,1.6488,1.6519,1.6548,1.6605,1.6641,1.6664,1.6701,1.6748,1.6787,1.6797,1.6812,1.6815,1.6825,1.6798,1.6795,1.6792,1.6782,1.6818,1.6818,1.6851,1.6851,1.6851]},{"header":{"parameterUnit":"m.s-1","parameterCategory":1,"la1":30.2991,"la2":30.254,"lo1":-89.0895,"lo2":-89.0444,"dy":0.0017,"dx":0.0017,"nx":28,"ny":28,"refTime":"2025-05-22T03:00:00:Z","depth":0,"parameterNumber":3,"parameterNumberName":"V-component_of_WINDS"},"data":[0,0,0,0,0,0,0,0,0,0,0,0,0,0,0,0,0,0,0,0,0,0,0,0,0,0,0,0,0,0,0,0,0,0,0,0,0,0,0,0,0,0,0,0,0,0,0,0,0,0,0,0,0,0,0,0,0,0,1.6692,1.6691,0,1.666,1.666,1.6659,1.661,1.6609,1.6608,1.6607,1.6574,1.6574,1.6574,0,0,0,0,0,0,0,0,0,0,0,0,0,1.6708,1.6708,1.6692,1.6691,1.6691,1.666,1.666,1.6659,1.661,1.6609,1.6608,1.6607,1.6574,1.6574,1.6574,0,0,0,0,0,0,0,0,0,0,0,0,0,1.6691,1.6708,1.6692,1.6663,1.666,1.666,1.6659,1.6659,1.661,1.6609,1.6608,1.6606,1.6574,1.6574,1.6574,1.66,0,0,1.6574,1.6574,0,0,0,0,0,0,0,0,1.6692,1.669,1.6667,1.6665,1.6661,1.6637,1.6653,1.6639,1.6611,1.6629,1.6607,1.6606,1.6596,1.6594,1.6591,1.6599,1.6597,1.6574,1.6574,1.6574,1.6574,0,0,0,0,0,0,0,1.6693,1.6691,1.6679,1.6667,1.6663,1.665,1.6647,1.665,1.6621,1.6627,1.6624,1.6621,1.6595,1.6592,1.659,1.6597,1.6574,1.6574,1.6574,1.6574,1.6621,1.6623,0,0,0,0,0,0,1.6699,1.6693,1.668,1.6678,1.6674,1.6651,1.6647,1.6646,1.662,1.6615,1.6622,1.6618,1.6592,1.659,1.6589,1.6616,1.6574,1.6574,1.6574,1.662,1.6622,1.6623,0,0,0,0,0,0,1.6699,1.6698,1.6681,1.6684,1.6681,1.6652,1.6652,1.6647,1.6644,1.6616,1.661,1.6624,1.6591,1.6589,1.6597,1.6614,1.6574,1.6574,1.6619,1.6621,1.6622,1.6672,0,0,0,0,0,0,1.67,1.6699,1.6709,1.6685,1.6681,1.6691,1.6653,1.6647,1.6644,1.6639,1.6617,1.6612,1.659,1.6598,1.6597,1.6613,1.6574,1.6617,1.6619,1.6622,1.6668,1.6675,1.6681,0,0,0,0,0,1.6701,1.6725,1.671,1.6708,1.6694,1.6692,1.669,1.6664,1.6645,1.6655,1.6637,1.6613,1.6613,1.6599,1.6598,1.6615,1.6616,1.6619,1.6622,1.6666,1.6674,1.6681,0,0,0,0,0,0,1.6752,1.6721,1.6704,1.6721,1.671,1.6684,1.6695,1.6674,1.6668,1.6664,1.6631,1.6627,1.6639,1.6627,1.6613,1.6637,1.661,1.6613,1.6644,1.6652,1.6658,1.666,1.6574,0,0,0,0,0,1.6765,1.6767,1.6739,1.6757,1.6752,1.6725,1.6723,1.6704,1.6691,1.6686,1.6668,1.6656,1.6653,1.6652,1.6648,1.6666,1.666,1.6677,1.6683,1.6688,1.6691,1.6698,1.6705,1.6633,1.6633,1.6633,0,0,1.6792,1.6775,1.6779,1.6767,1.6755,1.6757,1.6721,1.6725,1.6725,1.6686,1.6693,1.6679,1.6663,1.6677,1.6682,1.6668,1.671,1.6692,1.6697,1.6696,1.6702,1.6709,1.6715,1.6635,1.6634,1.6634,0,0,1.6842,1.6831,1.6843,1.6832,1.6815,1.6797,1.68,1.6777,1.6766,1.6772,1.6742,1.6742,1.6738,1.6727,1.6721,1.6765,1.6742,1.6764,1.6797,1.6804,1.6809,1.6814,1.6828,1.6834,1.6767,1.6767,1.6767,0,1.6878,1.688,1.6852,1.6857,1.6852,1.6816,1.6827,1.6818,1.6801,1.6798,1.6782,1.6774,1.6761,1.677,1.6781,1.6778,1.6779,1.6767,1.6811,1.6816,1.682,1.6833,1.6838,1.677,1.677,1.6769,1.6769,0,1.6924,1.6926,1.6937,1.6921,1.6917,1.6926,1.6898,1.6897,1.6878,1.686,1.6866,1.6848,1.6839,1.684,1.6822,1.6846,1.6837,1.6817,1.6789,1.683,1.6841,1.6846,1.6774,1.6773,1.6772,1.6771,0,0,1.7006,1.6973,1.6978,1.6969,1.6947,1.6947,1.6953,1.6944,1.6943,1.6932,1.6935,1.6931,1.6912,1.6905,1.6885,1.6891,1.6925,1.6869,1.6868,1.6879,1.6948,1.6963,1.6969,1.6909,1.691,1.6911,1.6949,0,1.7051,1.706,1.7034,1.7048,1.7048,1.7013,1.7018,1.7005,1.6988,1.6985,1.6967,1.6964,1.6939,1.6934,1.6939,1.692,1.6938,1.6917,1.6911,1.6911,1.6915,1.6976,1.6992,1.7029,1.6953,1.6954,1.6955,0,1.7105,1.7096,1.7111,1.7086,1.7085,1.709,1.7078,1.7076,1.7059,1.7047,1.7038,1.7014,1.7017,1.6991,1.6993,1.6979,1.6975,1.6965,1.6966,1.6964,1.6935,1.6974,1.704,1.7045,1.6962,1.6961,1.6961,0,1.7162,1.7154,1.7161,1.7155,1.7126,1.713,1.7118,1.71,1.7096,1.7085,1.7081,1.7071,1.7066,1.7058,1.7031,1.7015,1.7036,1.7008,1.7025,1.7025,1.7031,1.7031,1.7096,1.703,1.703,1.7029,1.7029,0,1.7215,1.7225,1.7186,1.719,1.7199,1.7169,1.7179,1.7163,1.7147,1.7147,1.7116,1.7117,1.7082,1.7078,1.7057,1.7061,1.7059,1.7048,1.7042,1.7051,1.7052,1.7047,1.7044,1.7031,1.7031,1.703,1.703,0,1.728,1.7254,1.7259,1.7232,1.7225,1.7233,1.7209,1.7211,1.7192,1.7192,1.719,1.716,1.7154,1.7126,1.7114,1.71,1.711,1.71,1.7116,1.7112,1.7129,1.7128,1.7193,1.72,1.7131,1.7131,1.7132,0,1.7315,1.7321,1.7294,1.7292,1.7281,1.7278,1.7273,1.7242,1.7237,1.7218,1.7222,1.7213,1.7204,1.7195,1.7172,1.7161,1.715,1.7173,1.7148,1.7155,1.7148,1.7148,1.7148,1.7179,1.7179,1.718,1.7181,0,1.7379,1.7365,1.7359,1.7348,1.7342,1.7332,1.732,1.7319,1.7285,1.7281,1.7274,1.7267,1.7253,1.7244,1.723,1.7217,1.7193,1.7189,1.7192,1.72,1.7209,1.7203,1.713,1.7188,1.7187,1.7186,1.7186,1.7186,1.7429,1.7433,1.7413,1.7407,1.7394,1.7383,1.7383,1.7363,1.7357,1.7343,1.7325,1.732,1.7301,1.7279,1.7267,1.7262,1.7249,1.7254,1.7254,1.7256,1.7259,1.721,1.7259,1.7259,1.7259,1.7259,1.7258,0,1.749,1.7476,1.747,1.7453,1.7448,1.7426,1.741,1.7407,1.7403,1.7387,1.7379,1.7369,1.736,1.7335,1.7323,1.7323,1.7312,1.7321,1.732,1.7317,1.7273,1.7271,1.733,1.733,1.733,1.733,1.733,1.733,1.7522,1.7526,1.751,1.7507,1.7492,1.7486,1.7479,1.7468,1.7455,1.7446,1.7438,1.7422,1.7402,1.7388,1.7378,1.737,1.7367,1.7379,1.7369,1.7327,1.7321,1.7314,1.7312,1.7379,1.7379,1.7413,1.7414,1.7414]}]]